Location: Burla
(50.9568°N, 10.4983°E)
Time: 06:55:41
(UTC+00:00)

USA 307 - Pass Details

Date: 18 January 2026
Orbit: 495 x 502 km, 54.0° (Epoch: 10 March)

Event Time Altitude Azimuth Distance (km) Brightness Sun altitude
Exits shadow 05:57:41 15° 268° (W) 1,411 4.3 -11.4°
Maximum altitude 05:59:59 25° 222° (SW) 1,042 4.0 -11.0°
Drops below altitude 10° 06:03:10 10° 167° (SSE) 1,640 5.7 -10.6°
Sets 06:05:27 0° 154° (SSE) 2,427 6.9 -10.2°
